www.pogodaiklimat.ru

Погода и климат >> Архив погоды >> Индонезия >> Парох


ПОГОДА в Парохе

  • Прогноз погоды в Парохе
  • Монитор погоды в Парохе

АРХИВ ПОГОДЫ в Парохе

Время (UTC), дата Ветер
(напр.,м/с)
 
Видим.   Явления Облачность Т
(С)
Тd
(С)
f
(%)
Тe
(С)
Тes
(С)
Комфортность P
(гПа)
Po
(гПа)
Тmin
(С)
Tmax
(С)
R
(мм)
R24
(мм)
S
(см)
12 12.09 ЮЗ 1 8000 м дым 8/1 420 м
[Cu hum Ac trans Ci fib]
+28.2 +24.7 81 +40 +40 очень
душно
1012.3 1010.6 +32.5
00 13.09 ЮВ 3 2000 м дым 6/0
[Ci fib]
+24.4 +23.4 94 +33 +35 очень
душно
1013.5 1011.7 +23.6
03 13.09 Ю 3 5000 м дым 6/0
[Ci fib]
+30.0 +22.5 64 +39 +54 опасность
солнечного
удара
1013.9 1012.2
06 13.09 З 4 7000 м дым 6/0
[Ac trans Ci fib]
+31.6 +23.5 62 +42 +53 опасность
перегрева
1011.0 1009.3
09 13.09 З 3 7000 м дым 6/0
[Ci fib]
+30.2 +23.5 67 +41 +44 опасность
перегрева
1010.4 1008.7
12 13.09 Ю 2 7000 м дым 8/0
[Ac trans Ci fib]
+27.0 +22.8 78 +36 +36 очень
душно
1011.3 1009.6 +32.4
00 14.09 Ю 2 1000 м дым 9/0
[Ac trans Ci fib]
+23.2 +21.6 91 +31 +33 очень
душно
1013.1 1011.3 +22.5
03 14.09 Ю 3 6000 м дым 9/0
[Ac trans Ci fib]
+29.8 +21.8 62 +38 +48 очень
душно
1012.8 1011.1
06 14.09 Ю 4 7000 м дым 9/3 420 м
[Cu hum Ac trans Ci fib]
+33.3 +15.9 35 +36 +41 очень
душно
1010.6 1008.9
09 14.09 Ю 3 8000 м дым 9/3 420 м
[Cu med, cong Ac trans Ci fib]
+32.3 +17.6 42 +36 +38 очень
душно
1009.6 1007.9
12 14.09 Ю 2 8000 м дым 9/3 420 м
[Cu med, cong Ac trans Ci fib]
+26.8 +21.7 74 +34 +34 очень
душно
1011.3 1009.6 +33.6
00 15.09 ЮВ 2 500 м дым 9/3 420 м
[Cu hum Ac trans Ci fib]
+23.6 +21.4 87 +30 +31 очень
душно
1012.4 1010.6 +20.8
03 15.09 ЮВ 2 1000 м дым 9/4 420 м
[Cu hum Ac trans Ci fib]
+28.2 +22.7 72 +37 +44 очень
душно
1012.6 1010.9
06 15.09 ЮЗ 3 2000 м дым {туман} 8/1 420 м
[Cu med, cong Ac trans Ci fib]
+32.2 +22.6 57 +42 +51 опасность
перегрева
1009.7 1008.0
09 15.09 ЮЗ 2 500 м дым {туман} ?/? +30.0 +23.9 70 +41 +41 опасность
перегрева
1009.0 1007.3
12 15.09 штиль 0 500 м дым {туман} ?/? +27.0 +24.0 84 +37 +37 очень
душно
1010.8 1009.1 +33.2
00 16.09 ЮВ 1 100 м дым {туман} ?/? +22.4 +22.0 98 +30 +30 очень
душно
1012.2 1010.4 +20.8
03 16.09 СВ 1 500 м дым {туман} ?/? +28.4 +22.5 70 +37 +37 очень
душно
1012.1 1010.4
06 16.09 СЗ 4 300 м дым {туман} ?/? +31.6 +23.2 61 +42 +42 опасность
перегрева
1009.2 1007.5
09 16.09 СЗ 4 200 м дым {туман} ?/? +29.7 +23.6 70 +41 +41 опасность
перегрева
1008.4 1006.7
12 16.09 СВ 1 800 м дым {туман} 6/0
[Ci fib]
+27.2 +24.1 83 +38 +38 очень
душно
1009.9 1008.2 +32.2
00 17.09 СЗ 1 100 м дым {туман} ?/? +24.3 +24.1 99 +33 +33 очень
душно
1012.4 1010.6 +22.4
03 17.09 Ю 3 200 м дым {туман} ?/? +29.2 +23.4 71 +40 +40 очень
душно
1012.4 1010.7
06 17.09 ЮЗ 3 200 м дым {туман} ?/? +32.0 +24.3 64 +44 +44 опасность
перегрева
1010.0 1008.3
09 17.09 ЮЗ 3 200 м дым {туман} ?/? +30.2 +25.1 74 +44 +44 опасность
перегрева
1009.0 1007.3
12 17.09 штиль 0 300 м дым {туман} ?/? +28.0 +25.4 86 +41 +41 опасность
перегрева
1010.2 1008.5 +32.2
00 18.09 ЮВ 1 100 м дым {туман} ?/? +24.4 +23.4 94 +33 +33 очень
душно
1012.9 1011.1 +23.6
03 18.09 ЮВ 3 300 м дым {туман} ?/? +30.4 +24.4 70 +42 +42 опасность
перегрева
1012.8 1011.1
06 18.09 З 3 300 м дым {туман} ?/? +31.5 +25.7 71 +46 +46 опасность
перегрева
1010.1 1008.4
09 18.09 С 2 700 м дым {туман} 8/1 420 м
[Cu hum Ac trans Ci fib]
+31.4 +25.8 72 +46 +49 опасность
перегрева
1009.6 1007.9
12 18.09 Ю 1 500 м дым {туман} ?/? +28.2 +25.9 87 +42 +42 опасность
перегрева
1011.2 1009.5 +33.4
00 19.09 ЮВ 2 200 м дым ?/? +25.0 +24.5 97 +35 +35 очень
душно
1013.2 1011.4 +23.5
03 19.09 Ю 2 300 м дым ?/? +30.4 +24.4 70 +42 +42 опасность
перегрева
1013.1 1011.4
06 19.09 З 2 500 м дым {туман} ?/? +32.4 +24.4 63 +45 +45 опасность
перегрева
1010.2 1008.5
09 19.09 СЗ 2 700 м дым {туман} ?/? +31.0 +25.3 72 +45 +45 опасность
перегрева
1009.5 1007.8

 

Местоположение метеостанции Парох (Индонезия): широта 1.77 долгота 109.30 высота над уровнем моря 15 м.

В архиве по умолчанию представлена погода в Парохе за последнюю неделю. Архивные данные за месяц целиком и за предыдущие месяцы, начиная с января 2011 года, Вы можете получить, выбрав интересующий диапазон дат из раскрывающегося списка и нажав кнопку "Ввод!".


*Определитесь, кто Вы:
робот инопланетянин человек

Внимание! Время в таблицах - всемирное. Для получения местного времени необходимо прибавить поправку, которая равна 7 ч.

Смотрите также архив погоды в соседних городах и на ближайших метеорологических станциях:

Погода в Кучинге (Малайзия) (119 км)
Погода в Понтианаке (Индонезия) (214 км)
Погода в Ранаи (Индонезия) (263 км)
Погода в Сибу (Малайзия) (288 км)
Погода в Синтанге (Индонезия) (309 км)
Погода в Нангапинохе (Индонезия) (363 км)
Погода в Таремпе (Индонезия) (374 км)
Погода в Кетапанге (Индонезия) (409 км)
Погода на Путусиббау (Индонезия) (418 км)
Погода в Бинталу (Малайзия) (444 км)

Пояснения к столбцам:

Ветер - указаны скорость ветра в м/с - средняя за 10 мин, порывы в срок и между сроками (в фигурных скобках) и направление, откуда дует ветер: С - северный, СВ - северо-восточный, В - восточный, ЮВ - юго-восточный, Ю - южный, ЮЗ - юго-западный, З - западный, СЗ - северо-западный.
Видимость - горизонтальная дальность видимости в метрах или километрах. При видимости от 1 до 10 км при отсутствии осадков обычно наблюдается дымка, при ухудшении видимости до 1 км и менее - туман. В сухую погоду видимость может ухудшаться дымом, пылью или мглою.
Явления - указаны атмосферные явления, наблюдавшиеся в срок или в последний час перед сроком; фигурными скобками обозначены явления, наблюдавшиеся между сроками (за 1-3 часа до срока); квадратными скобками обозначены град или гололедные отложения с указанием их диаметра в мм.
Облачность - указаны через наклонную черту общая и нижняя облачность в баллах и высота нижней границы облаков в метрах; квадратными скобками обозначены формы облаков: Ci - перистые, Cs - перисто-слоистые, Cc - перисто-кучевые, Ac - высококучевые, As - высокослоистые, Sc - слоисто-кучевые, Ns - слоисто-дождевые, Cu - кучевые, Cb - кучево-дождевые. Подробнее классификацию облаков см. в Атласе облаков (PDF).
T - Температура воздуха - температура, измеренная на высоте 2 м над землей.
Td - Температура точки росы - температура, при понижении до которой содержащийся в воздухе водяной пар достигнет насыщения.
f - Относительная влажность воздуха - влажноcть воздуха, измеренная на высоте 2 м над землей.
Te - Эффективная температура - температура, которую ощущает одетый по сезону человек в тени. Характеристика душности погоды. При расчете учитывается влияние влажности воздуха и скорости ветра на теплоощущения человека.
Tes - Эффективная температура на солнце - температура, которую ощущает человек, с поправкой на солнечный нагрев. Характеристика знойности погоды. Зависит от высоты солнца над горизонтом, облачности и скорости ветра. Ночью, в пасмурную погоду, а также при ветре 12 м/с и более поправка равна нулю.
P - Атмосферное давление - приведенное к уровню моря атмосферное давление.
Po - Атмосферное давление - измеренное на уровне метеостанции атмосферное давление.
Tmin - Минимальная температура - минимум температуры воздуха на высоте 2 м над землей.
Tmax - Максимальная температура - максимум температуры воздуха на высоте 2 м над землей.
R - Количество осадков - Количество выпавших осадков за период времени, мм. При наведении курсора мыши на число - период времени, за который выпало указанное количество осадков.
R24 - Количество осадков - Количество выпавших осадков за 24 часа, мм.
S - Снежный покров - Высота снежного покрова, см. При наведении курсора мыши на число - состояние снежного покрова и степень покрытия местности в баллах.